Orbital elements:
    C/2002 C1 (Ikeya-Zhang)
Epoch 2002 Mar. 27.0 TT = JDT 2452360.5
T 2002 Mar. 18.98004 TT                                 MPC
q   0.5070628            (2000.0)            P               Q
z  +0.0195563      Peri.   34.66995     -0.54915816     -0.69067539
 +/-0.0000173      Node    93.36873     +0.61957254     -0.71430987
e   0.9900837      Incl.   28.12121     +0.56085219     +0.11282251
Residuals in seconds of arc
020201 620  1.4+  0.4+    020209 379  0.1+  1.3-    020223 347  0.5+  0.5+
020201 620  1.6+  0.8+    020209 379  0.2+  0.2-    020223 347  0.2+  0.3-
020201 620 (1.7+  2.4+)   020209 379  0.2+  0.5-    020223 213  0.9-  0.3-
020201 620 (1.6+  2.1+)   020209 347  0.2-  0.3-    020224 349  0.3-  0.4+
020202 739  0.2-  0.5-    020209 347  0.2-  0.0     020224 349  0.4-  0.1+
020202 739  0.7+  0.7+    020209 349  0.1-  0.6-    020224 349  0.2-  0.0
020202 739  1.1-  0.0     020209 349  0.2-  0.5-    020224 349  0.1+  0.1-
020202 734  1.4+  0.5-    020209 349  0.3-  0.4-    020224 349  0.2+  0.4+
020202 734 (2.7+  0.2+)   020209 349  0.3-  0.6-    020224 300  0.6+  0.2+
020202 734 (2.2+  0.1+)   020209 340  0.3-  0.5-    020224 300  0.3+  0.2-
020202 327  0.5+  0.4+    020209 340  0.3-  0.4-    020224 355  0.1-  0.0
020202 327  0.5+  0.1+    020209 340  0.6-  0.5-    020224 355  0.0   0.2+
020202 327  0.2+  0.9+    020209 340  0.1-  0.4-    020224 300  0.6+  0.4+
020202 046  0.5-  0.3+    020209 162  0.0   0.4-    020224 355  0.2+  0.2+
020202 118  0.3+  0.0     020209 162  1.7+  0.7-    020224 300  0.6+  0.4-
020202 046  1.5-  0.8-    020210 428  0.5-  0.8-    020224 300  0.2+  0.2-
020202 118  0.6+  0.7+    020210 349  0.2-  0.4-    020224 300  0.6+  0.1+
020202 046  0.4-  0.4+    020210 349  0.1-  0.3-    020224 340  0.7-  0.2-
020202 046  0.9-  0.2-    020210 349  0.1+  0.4-    020224 340  0.1+  0.1-
020202 118  0.7+  0.6+    020210 349  0.1-  0.3-    020224 367  0.8-  0.2-
020202 046  1.3-  1.3-    020210 235  0.3-  1.6+    020224 340  0.8-  0.2+
020202 118  0.8+  0.9+    020210 620  0.1-  0.0     020224 367  1.0-  0.2-
020202 046  0.5-  0.1+    020210 620  0.0   0.1-    020224 340  0.5-  0.3-
020202 636  0.1-  1.2+    020210 620  0.1+  0.4-    020224 367  1.1-  0.2+
020202 636  0.3-  0.6+    020211 379  0.4+  1.1-    020224 587  0.5+  0.1-
020202 151 (3.0-  0.0 )   020211 379  0.0   0.7-    020224 587  0.1-  0.4-
020202 636  0.9-  0.1-    020211 428  0.3-  0.5-    020224 587  1.5-  1.3+
020202 151 (2.1-  1.4+)   020211 379  0.9-  0.6-    020224 587  0.5-  0.7-
020202 636  0.5+  1.1+    020211 428  0.6-  0.5-    020225 379  1.1-  0.7-
020202 151 (3.2-  0.4+)   020211 428  0.2-  0.4-    020225 379  0.1+  1.4+
020202 201  0.7+  0.3+    020211 340  0.5-  0.6-    020226 367  0.1-  0.7+
020202 151  1.4-  0.5+    020211 340  0.7-  0.7-    020226 367  0.0   0.4+
020202 104  1.9-  0.7-    020211 340  0.5-  0.7-    020226 367  0.0   0.7+
020202 201  0.4+  0.0     020211 372  0.5-  0.5-    020228 046  0.9+  1.0+
020202 104  0.5-  0.5-    020211 372  0.3-  1.0-    020228 046  0.4+  0.0
020202 201 (2.0+  0.6+)   020211 201  0.4+  0.1-    020228 046  1.2+  1.9+
020202 104  0.1-  0.8+    020211 201  0.8-  0.4-    020301 850  0.2-  0.9-
020202 104  0.0   0.2+    020211 201  0.4+  0.0     020302 232  0.5+  0.7+
020202 104  0.1-  1.2+    020212 428  0.4-  0.1+    020302 941 (2.1-  4.5-)
020202 941  0.9+  0.3+    020212 428  0.3-  0.1-    020302 941 (2.1-  3.7-)
020202 232  1.5+  0.3-    020212 300  0.8+  0.1+    020303 349  0.2-  0.1-
020202 232  0.2+  0.1-    020212 300  1.3+  0.1-    020303 349  0.4-  0.1-
020202 941  1.6+  0.5+    020212 300  1.2+  0.5-    020303 349  0.8-  0.3-
020202 201  0.3+  0.7+    020212 300  0.9+  0.1-    020303 349  0.4-  0.4-
020202 941  1.0+  0.4+    020212 300  0.5+  0.5-    020303 340  0.1-  0.7-
020202 232  1.3+  0.4+    020212 300  1.0+  0.2-    020303 342  0.6-  1.4-
020202 941  0.3+  0.6+    020212 300  1.1+  0.6-    020303 342  1.6-  0.8-
020202 232  0.2+  0.0     020212 300  1.2+  0.2-    020303 367  0.3-  0.6-
020202 213  0.6-  0.5+    020212 372  0.2-  0.7+    020303 367  0.5-  0.5-
020202 941  0.9+  0.8+    020212 372  0.5-  0.1+    020303 367  0.6-  0.5-
020202 232  0.3+  0.1+    020212 162  0.7+  1.8+    020303 201  0.9-  0.2+
020202 213  0.2-  0.4+    020212 162  0.4+  2.0+    020303 201  0.1-  0.1-
020202 213  0.1+  0.2+    020213 379  0.2+  0.5-    020303 213  0.9+  0.2+
020202 213  1.3+  0.2+    020213 379  0.7-  0.2-    020303 201  0.4-  0.3-
020202 213  0.3-  0.3+    020213 342  0.2+  0.6-    020304 342  0.3-  1.6-
020202 213  0.2+  0.6+    020213 342  1.0-  0.1-    020304 372  0.6+  1.1+
020203 452  1.0+  1.1+    020213 201  0.1-  0.5+    020304 342  1.1+  0.1+
020203 452 (3.6+  0.9+)   020213 201  0.2-  0.6+    020304 372  1.2+  1.0+
020203 452  1.4+  0.8+    020213 201  0.1+  0.8+    020304 372  1.3+  0.7+
020203 428  0.0   0.1-    020214 341  0.4+  0.0     020304 235  0.4-  0.2-
020203 428  0.1+  0.0     020214 341  0.3+  0.1-    020304 201  0.7+  1.5+
020203 428  0.4-  0.0     020214 342  0.3-  0.1-    020304 201  1.5+  1.5+
020203 428  0.1-  0.0     020214 341  0.4+  0.1-    020304 201  0.3-  1.4+
020203 367  0.1+  1.4+    020214 341  0.4+  0.0     020305 850  0.4-  0.9-
020203 367  1.8-  0.5-    020214 342  0.1-  0.6+    020306 850  1.5+  0.0
020203 367 (2.3-  1.3-)   020214 636  1.1-  0.5+    020306 850  0.9+  1.1+
020203 367  0.6-  0.7-    020214 636  0.6-  1.0+    020306 342  0.2+  0.8-
020203 367  0.8+  1.5+    020214 636  0.1+  0.2+    020306 355  1.1+  0.8+
020203 046  0.2+  0.4-    020214 636  0.1-  1.0+    020306 300  0.8+  0.3-
020203 046  0.9+  0.4-    020215 341  0.1+  0.4+    020306 300  0.6+  0.1+
020203 046  0.8+  0.6-    020215 341  0.1+  0.3+    020306 300  0.7+  0.2-
020203 046  1.2+  0.2+    020215 372  0.5-  0.3+    020306 300  0.5+  0.1+
020203 235 (3.9+  5.9+)   020215 367  0.1+  0.6+    020306 300  0.2+  0.3+
020204 896  1.0-  0.9+    020215 367  0.1+  0.5+    020306 300  0.2+  0.2-
020204 349  0.8-  0.2-    020215 372  1.4+  0.3+    020306 340  0.7-  0.2-
020204 349  0.3-  0.2-    020215 367  0.4+  0.2+    020306 340  0.4-  0.3-
020204 349  0.3-  0.0     020215 118  0.8+  0.9+    020306 340  0.9-  0.5-
020204 349  0.7-  0.6-    020215 118  1.2+  0.7+    020306 340  0.5-  0.0
020204 349  0.3-  0.2-    020215 118  1.4+  0.5+    020306 342  0.3+  1.5+
020204 342  0.8-  0.6-    020215 620  0.1+  0.7-    020307 300  0.2+  0.4-
020204 342  0.2+  0.1-    020215 199  1.1+  0.9+    020307 300  0.6+  0.2-
020204 342  0.0   0.8-    020215 199  1.2-  0.4+    020307 300  0.1-  0.1-
020204 372  0.9-  1.2+    020215 199  1.3+  1.7+    020307 300  0.5+  0.5+
020204 118  1.1+  0.3-    020215 199  0.6-  0.3+    020307 300  0.1+  0.4-
020204 118  0.7+  0.4+    020215 199  1.7+  1.4+    020307 355  0.5+  0.3-
020204 046  0.1+  0.4+    020215 199  1.7-  0.0     020307 355  0.3-  0.6-
020204 046  0.3+  0.7+    020215 199  1.3-  0.7+    020307 355  0.5-  0.5+
020204 118  0.7+  0.1-    020215 199  0.7-  0.0     020308 850  0.8+  0.0
020204 046  0.4+  0.8+    020215 199  1.7-  0.5-    020308 355  0.0   0.0
020204 046  0.4+  0.9+    020215 199  0.5+  0.5+    020308 355  0.2-  0.3-
020205 452  0.1+  0.2-    020215 199  0.2-  0.4+    020308 355  0.3-  0.0
020205 452  0.4-  0.0     020215 620  0.1+  0.7-    020308 372  0.2-  0.6+
020205 452  0.0   0.1+    020215 199  0.6+  0.7+    020308 201  0.2-  0.4+
020205 452  0.0   1.1+    020215 199  0.1-  0.1+    020308 201  0.8+  0.4+
020205 428  0.2-  0.2-    020215 199  1.2+  0.4+    020308 941  0.3-  0.1-
020205 428  0.3-  0.2-    020215 199  0.8+  1.2+    020308 941  0.5-  0.1+
020205 428  0.4-  0.2+    020215 199  0.9-  0.1-    020308 201  1.7+  0.5+
020206 341  0.6-  0.3-    020215 199  0.1+  0.6+    020309 379  0.9+  0.2+
020206 300  0.6+  0.2-    020215 620  0.4+  0.6-    020309 379  1.3+  0.1+
020206 349  0.4-  0.3-    020216 367  0.4-  0.0     020309 379  1.4+  0.1+
020206 300  0.1+  0.3-    020216 367  0.1-  0.1-    020309 349  0.9-  0.6-
020206 349  0.4-  0.6-    020216 367  0.1-  0.0     020309 349  0.8-  0.4-
020206 300  0.7+  0.4-    020216 046  0.2-  0.6+    020309 349  0.5-  0.3-
020206 349  0.6-  0.3-    020216 046  0.4+  0.5+    020309 349  0.6-  0.1-
020206 300  0.4+  0.6-    020216 046  0.3-  0.4+    020309 360  1.1-  1.2+
020206 349  0.6-  0.4-    020216 046  0.1-  0.4+    020309 360  1.2-  0.9+
020206 300  0.4+  0.4-    020216 046  0.7-  0.0     020309 360  0.9-  0.7+
020206 349  0.8-  0.5-    020216 046  0.0   0.2-    020309 355  0.3-  0.2+
020206 341  0.8-  0.3-    020218 379  0.4+  0.0     020309 355  0.0   0.0
020206 402  0.7-  0.5-    020218 379  0.3-  0.9-    020309 355  0.1-  0.4+
020206 867  1.4-  0.2-    020218 379  0.1-  1.0-    020309 340  0.7-  0.1+
020206 402  0.5-  0.2-    020218 379  1.0-  0.8-    020309 340  0.6-  0.6-
020206 402  0.7-  0.4-    020218 300  0.8+  0.2-    020309 300  0.3-  0.9-
020206 341  0.6-  0.2-    020218 300  0.2+  0.4-    020309 340  1.2-  0.9-
020206 867  1.1-  0.1-    020218 300  0.9+  0.8-    020309 300  0.1-  0.4-
020206 340  1.0-  0.2-    020218 300  0.8+  0.1+    020309 300  0.4-  0.5+
020206 379  1.0-  0.3-    020218 300  0.3+  0.7-    020309 340  1.3-  0.4-
020206 347  1.4-  0.1-    020218 300  1.2+  0.8-    020309 300  0.4-  0.9+
020206 340  0.9-  0.5-    020218 300  0.9+  0.1-    020309 300  0.0   0.8+
020206 340  1.2-  0.9-    020218 300  0.4+  0.3-    020309 340  1.3-  0.1-
020206 341  0.6-  0.3-    020218 888 (2.7+  0.9-)   020309 367  0.2-  0.4-
020206 340  0.8-  0.8-    020218 888 (2.5+  0.6-)   020309 367  0.5-  0.6-
020206 347  0.7-  0.3-    020218 888 (2.2+  0.8-)   020309 367  0.3-  0.4-
020206 340  1.1-  0.7-    020218 888 (2.8+  0.4-)   020309 235 (2.0-  0.6-)
020206 340  0.7-  0.7-    020218 201  0.8-  0.7+    020309 540  1.1-  1.4+
020206 347  1.3-  0.8-    020218 201  0.2-  0.3-    020309 540  1.1-  0.6-
020206 341  0.6-  0.7-    020218 201  0.8-  0.6+    020309 540  0.3-  0.2-
020206 347  0.9-  0.7-    020219 379 (1.2-  2.1-)   020309 540  0.2-  0.1-
020206 340  1.4-  0.3-    020219 379  0.7-  1.5-    020310 557  0.5-  0.9-
020206 347  0.9-  0.3-    020219 379  0.8+  0.1-    020310 557  0.5-  0.4-
020206 340  0.6-  0.8-    020219 379  0.3+  1.2+    020310 557  0.4-  0.5-
020206 340  0.5-  0.2-    020219 620  0.2-  0.2+    020310 557  0.3-  0.5-
020206 367  1.0-  0.7-    020219 620  0.1+  0.0     020310 557  0.3-  0.4-
020206 367  0.4-  1.6-    020219 620  0.1+  0.0     020310 557  0.5-  0.7-
020206 367  1.2-  1.1-    020219 620  0.1+  0.0     020310 557  0.4-  0.5-
020206 367  0.0   0.8-    020220 448  1.1+  0.6+    020310 557  0.6-  0.7-
020207 300  0.4+  0.0     020220 448  0.4+  0.5+    020310 235  1.6+  1.6+
020207 300  0.7+  0.3+    020220 448  0.0   0.4+    020311 347  0.4+  0.3-
020207 300  0.6+  0.5-    020220 379  0.2-  1.5-    020311 347  0.1+  0.5-
020207 300  0.5+  0.6-    020220 340  0.2+  0.2-    020311 347  0.2-  0.2-
020207 300  0.5+  0.1+    020220 340  0.1-  0.5-    020311 300  0.1-  0.1-
020207 300  0.3+  0.1+    020220 340  0.2-  0.8-    020311 300  0.0   0.3+
020207 201  1.3+  0.3+    020220 340  0.3+  0.9-    020311 300  0.2-  0.0
020207 201  1.2+  0.3+    020220 300  0.8+  0.6-    020311 300  0.2-  0.0
020207 235  0.8+  0.8-    020220 300  0.1+  0.3+    020311 300  0.1+  0.1-
020207 201  0.1+  0.1+    020220 300  0.5+  0.4+    020311 372  0.7+  1.3+
020207 201  0.1+  0.1+    020220 300  0.3-  0.4-    020311 235 (0.6+  3.0+)
020207 213  0.2-  1.1+    020220 300  0.2-  0.7-    020312 235  0.9+  0.7+
020207 213 (2.8+  0.9+)   020222 372  0.0   0.8+    020313 300  0.1+  0.9-
020207 213  0.5+  0.2+    020222 372  0.3-  0.2+    020313 300  0.7+  0.7-
020207 213  0.9+  1.1+    020222 300  0.4+  0.8-    020313 300  0.0   0.5-
020208 620 (2.1+  1.5+)   020222 372  1.6-  0.1+    020313 300  0.5+  0.6-
020208 941  1.4+  0.3+    020222 300  0.5+  0.5-    020313 235  0.4+  0.2-
020208 941  1.4+  0.6+    020222 300  0.5+  0.2-    020316 540  0.2+  0.8+
020208 620  1.0+  0.4+    020222 300  0.7+  0.8-    020316 540  1.2+  1.8-
020208 620  0.6+  0.3+    020222 300  0.9+  0.7-    020316 235  0.6-  1.6+
020209 347  0.3-  0.4-    020222 300  0.6+  0.1-    020316 540  1.0+  0.6+
020209 347  0.1+  0.0     020223 347  0.2-  0.4+

